FALCON 9 DEB

Last updated on Oct. 27, 2020, 12:02 a.m. UTC

1 46595U 20070BR  20300.49191320  .00820854  43411-3  55020-3 0  9990
2 46595  52.9887 340.2306 0011010  36.0001 324.1774 16.16202824  4005

Satellite is not in orbit.